EN

Hourly Weather Louangphabang

Today, 1 December, Tuesday

Time Temperature Precipitation Wind Pressure Humidity
00:00 +15°C° 0 mm 0 mps 702 mmHg 85%
01:00 +15°C° 0 mm 1 mps 701 mmHg 89%
02:00 +15°C° 0 mm 1 mps 701 mmHg 90%
03:00 +14°C° 0 mm 1 mps 701 mmHg 91%
04:00 +14°C° 0 mm 1 mps 701 mmHg 93%
05:00 +14°C° 0 mm 1 mps 701 mmHg 92%
06:00 +14°C° 0 mm 1 mps 701 mmHg 92%
07:00 +14°C° 0 mm 1 mps 701 mmHg 92%
08:00 +18°C° 0 mm 1 mps 702 mmHg 80%
09:00 +20°C° 0 mm 1 mps 703 mmHg 69%
10:00 +23°C° 0 mm 1 mps 704 mmHg 57%
11:00 +25°C° 0 mm 1 mps 703 mmHg 53%
12:00 +26°C° 0 mm 1 mps 702 mmHg 48%
13:00 +28°C° 0 mm 1 mps 701 mmHg 44%
14:00 +27°C° 0 mm 1 mps 701 mmHg 45%
15:00 +27°C° 0 mm 1 mps 700 mmHg 47%
16:00 +27°C° 0 mm 1 mps 699 mmHg 48%
17:00 +24°C° 0 mm 1 mps 699 mmHg 58%
18:00 +20°C° 0 mm 0 mps 699 mmHg 67%
19:00 +17°C° 0 mm 0 mps 699 mmHg 77%
20:00 +17°C° 0 mm 0 mps 700 mmHg 78%
21:00 +17°C° 0 mm 0 mps 700 mmHg 79%
22:00 +16°C° 0 mm 0 mps 701 mmHg 79%
23:00 +16°C° 0 mm 0 mps 701 mmHg 82%

Tomorrow, 2 December, Wednesday

Time Temperature Precipitation Wind Pressure Humidity
00:00 +15°C° 0 mm 0 mps 700 mmHg 85%
01:00 +15°C° 0 mm 0 mps 700 mmHg 88%
02:00 +15°C° 0 mm 0 mps 700 mmHg 90%
03:00 +14°C° 0 mm 0 mps 700 mmHg 92%
04:00 +14°C° 0 mm 0 mps 700 mmHg 95%
05:00 +14°C° 0 mm 0 mps 700 mmHg 95%
06:00 +14°C° 0 mm 0 mps 700 mmHg 95%
07:00 +14°C° 0 mm 0 mps 700 mmHg 95%
08:00 +19°C° 0 mm 1 mps 701 mmHg 82%
09:00 +21°C° 0 mm 1 mps 702 mmHg 70%
10:00 +24°C° 0 mm 1 mps 702 mmHg 57%
11:00 +26°C° 0 mm 1 mps 702 mmHg 53%
12:00 +27°C° 0 mm 1 mps 701 mmHg 48%
13:00 +29°C° 0 mm 1 mps 700 mmHg 44%
14:00 +28°C° 0 mm 1 mps 700 mmHg 46%
15:00 +28°C° 0 mm 1 mps 699 mmHg 48%
16:00 +27°C° 0 mm 1 mps 698 mmHg 50%
17:00 +23°C° 0 mm 0 mps 699 mmHg 59%
18:00 +21°C° 0 mm 0 mps 699 mmHg 69%
19:00 +18°C° 0 mm 0 mps 699 mmHg 78%
20:00 +18°C° 0 mm 0 mps 699 mmHg 81%
21:00 +17°C° 0 mm 0 mps 700 mmHg 84%
22:00 +17°C° 0 mm 0 mps 700 mmHg 87%
23:00 +16°C° 0 mm 0 mps 700 mmHg 90%

Day after tomorrow, 3 December, Thursday

Time Temperature Precipitation Wind Pressure Humidity
00:00 +16°C° 0 mm 0 mps 700 mmHg 92%
01:00 +16°C° 0 mm 0 mps 700 mmHg 94%
02:00 +16°C° 0 mm 0 mps 700 mmHg 92%
03:00 +16°C° 0 mm 0 mps 700 mmHg 91%
04:00 +17°C° 0 mm 0 mps 700 mmHg 89%
05:00 +16°C° 0 mm 0 mps 700 mmHg 88%
06:00 +16°C° 0 mm 0 mps 700 mmHg 88%
07:00 +16°C° 0 mm 0 mps 701 mmHg 88%
08:00 +18°C° 0 mm 0 mps 701 mmHg 79%
09:00 +20°C° 0 mm 0 mps 702 mmHg 71%
10:00 +22°C° 0 mm 0 mps 702 mmHg 62%
11:00 +23°C° 0.1 mm 0 mps 702 mmHg 60%
12:00 +24°C° 0.1 mm 0 mps 701 mmHg 58%
13:00 +24°C° 0.1 mm 0 mps 701 mmHg 56%
14:00 +24°C° 0.2 mm 0 mps 700 mmHg 60%
15:00 +23°C° 0.2 mm 0 mps 699 mmHg 65%
16:00 +22°C° 0.2 mm 0 mps 699 mmHg 69%
17:00 +21°C° 0.1 mm 0 mps 699 mmHg 76%
18:00 +19°C° 0.1 mm 0 mps 699 mmHg 83%
19:00 +17°C° 0.1 mm 0 mps 700 mmHg 90%
20:00 +17°C° 0.1 mm 0 mps 700 mmHg 90%
21:00 +17°C° 0.1 mm 0 mps 701 mmHg 90%
22:00 +17°C° 0.1 mm 0 mps 701 mmHg 90%
23:00 +17°C° 0.2 mm 0 mps 701 mmHg 91%

4 December, Friday

Time Temperature Precipitation Wind Pressure Humidity
00:00 +17°C° 0.2 mm 0 mps 701 mmHg 92%
01:00 +16°C° 0.2 mm 0 mps 701 mmHg 94%
02:00 +16°C° 0.2 mm 0 mps 700 mmHg 95%
03:00 +16°C° 0.2 mm 0 mps 700 mmHg 95%
04:00 +15°C° 0.2 mm 0 mps 700 mmHg 96%
05:00 +15°C° 0 mm 0 mps 700 mmHg 95%
06:00 +15°C° 0 mm 0 mps 701 mmHg 95%
07:00 +15°C° 0 mm 0 mps 701 mmHg 94%
08:00 +16°C° 0 mm 0 mps 701 mmHg 85%
09:00 +18°C° 0 mm 0 mps 702 mmHg 76%
10:00 +20°C° 0 mm 0 mps 702 mmHg 67%
11:00 +21°C° 0 mm 0 mps 701 mmHg 62%
12:00 +24°C° 0 mm 1 mps 701 mmHg 57%
13:00 +25°C° 0 mm 1 mps 700 mmHg 52%
14:00 +25°C° 0 mm 1 mps 699 mmHg 53%
15:00 +25°C° 0 mm 1 mps 699 mmHg 55%
16:00 +22°C° 0 mm 0 mps 698 mmHg 57%
17:00 +20°C° 0 mm 0 mps 699 mmHg 67%
18:00 +18°C° 0 mm 0 mps 699 mmHg 76%
19:00 +16°C° 0 mm 0 mps 699 mmHg 85%
20:00 +16°C° 0 mm 0 mps 699 mmHg 86%
21:00 +15°C° 0 mm 0 mps 700 mmHg 87%
22:00 +15°C° 0 mm 0 mps 700 mmHg 88%
23:00 +15°C° 0 mm 0 mps 700 mmHg 87%

5 December, Saturday

Time Temperature Precipitation Wind Pressure Humidity
00:00 +15°C° 0 mm 0 mps 700 mmHg 85%
01:00 +16°C° 0 mm 0 mps 701 mmHg 84%
02:00 +15°C° 0 mm 0 mps 700 mmHg 84%
03:00 +15°C° 0 mm 0 mps 700 mmHg 83%
04:00 +15°C° 0 mm 0 mps 700 mmHg 83%
05:00 +15°C° 0 mm 0 mps 701 mmHg 83%
06:00 +15°C° 0 mm 0 mps 701 mmHg 83%
07:00 +14°C° 0 mm 0 mps 701 mmHg 83%
08:00 +16°C° 0 mm 0 mps 702 mmHg 74%
09:00 +20°C° 0 mm 1 mps 702 mmHg 65%
10:00 +22°C° 0 mm 1 mps 702 mmHg 56%
11:00 +24°C° 0 mm 1 mps 702 mmHg 53%
12:00 +25°C° 0 mm 1 mps 701 mmHg 49%
13:00 +26°C° 0 mm 1 mps 700 mmHg 45%
14:00 +26°C° 0 mm 1 mps 700 mmHg 47%
15:00 +25°C° 0 mm 1 mps 699 mmHg 49%
16:00 +23°C° 0 mm 0 mps 699 mmHg 51%
17:00 +21°C° 0 mm 0 mps 699 mmHg 61%
18:00 +19°C° 0 mm 0 mps 699 mmHg 70%
19:00 +16°C° 0 mm 0 mps 699 mmHg 80%
20:00 +16°C° 0 mm 0 mps 699 mmHg 82%
21:00 +15°C° 0 mm 0 mps 700 mmHg 85%
22:00 +15°C° 0 mm 0 mps 700 mmHg 87%
23:00 +14°C° 0 mm 0 mps 700 mmHg 90%

6 December, Sunday

Time Temperature Precipitation Wind Pressure Humidity
00:00 +14°C° 0 mm 0 mps 700 mmHg 92%
01:00 +13°C° 0 mm 0 mps 700 mmHg 95%
02:00 +13°C° 0 mm 0 mps 700 mmHg 96%
03:00 +12°C° 0 mm 0 mps 700 mmHg 97%
04:00 +12°C° 0 mm 0 mps 700 mmHg 98%
05:00 +12°C° 0 mm 0 mps 700 mmHg 97%
06:00 +12°C° 0 mm 0 mps 700 mmHg 97%
07:00 +12°C° 0 mm 0 mps 701 mmHg 97%
08:00 +14°C° 0 mm 0 mps 701 mmHg 85%
09:00 +19°C° 0 mm 1 mps 702 mmHg 72%
10:00 +22°C° 0 mm 1 mps 702 mmHg 60%
11:00 +24°C° 0 mm 1 mps 702 mmHg 55%
12:00 +25°C° 0 mm 1 mps 701 mmHg 49%
13:00 +27°C° 0 mm 1 mps 700 mmHg 44%
14:00 +26°C° 0 mm 1 mps 700 mmHg 45%
15:00 +26°C° 0 mm 1 mps 699 mmHg 46%
16:00 +26°C° 0 mm 1 mps 699 mmHg 48%
17:00 +23°C° 0 mm 1 mps 699 mmHg 58%
18:00 +19°C° 0 mm 0 mps 699 mmHg 68%
19:00 +16°C° 0 mm 0 mps 699 mmHg 78%
20:00 +16°C° 0 mm 0 mps 699 mmHg 81%
21:00 +15°C° 0 mm 0 mps 699 mmHg 84%
22:00 +14°C° 0 mm 0 mps 700 mmHg 87%
23:00 +14°C° 0 mm 0 mps 699 mmHg 89%
Show more

We Need Your Consent

Meteoprog and our Service Providers may store and access personal data such as cookies, device identifiers or other similar technologies on your device and process such data to personalise content and ads, as well as provide social media features and to analyse the traffic.

  • Store and/or access information on your device

    Cookies, device identifiers or other information can be stored or accessed on your device for the purposes indicated above.

  • Personalised ads and content, ad and content measurement, audience insights, and products development

    Ads and content can be personalised based on a profile. More data can be added to better personalise ads and content. Ad and content performance can be measured. Insights about the audience who saw the ads and content can be derived. Such data can be used to develop or improve user’s experience, systems and software.

By clicking ‘I Agree’ you will allow the use of indicated cookies, device identifiers, web beacons or other similar technologies. Your settings can be changed in the browser on your device.

For certain purposes, legitimate interests may be relied on, rather than consent. You can read more about this in our Privacy and Cookie Policy.